Manhattan, KS

10:41 AM CST on December 09, 2019 (GMT -0600)
Manhattan Regional

Weather History for KMHK - October, 2019

Change the Weather History Date:

Thursday, October 3, 2019

  Actual Average Record
Temperature  
Mean Temperature 57 °F 60 °F  
Max Temperature 63 °F 73 °F 96 °F (2006)
Min Temperature 50 °F 47 °F 33 °F (1999)
Degree Days  
Heating Degree Days 8 7  
Month to date heating degree days 13 19  
Since 1 July heating degree days 14 89  
Cooling Degree Days 0 2  
Month to date cooling degree days 13 6  
Year to date cooling degree days 1608 1343  
Growing Degree Days 6 (Base 50)    
Moisture  
Dew Point 47 °F    
Average Humidity 70    
Maximum Humidity 83    
Minimum Humidity 56    
Precipitation  
Precipitation 0.00 in 0.08 in 0.97 in (2013)
Month to date precipitation 0.90 0.26  
Year to date precipitation 38.88 27.97  
Sea Level Pressure  
Sea Level Pressure 30.26 in    
Wind  
Wind Speed 6 mph (NNE)    
Max Wind Speed 14 mph    
Max Gust Speed 21 mph    
Visibility 10 miles    
Events      
T = Trace of Precipitation, MM = Missing Value Source: NWS Daily Summary

Daily Weather History Graph

Daily Weather History Graph

Search for Another Location

Airport or City:

Astronomy

Oct. 03, 2019 Rise Set
Actual Time 7:24 AM CDT 7:06 PM CDT
Civil Twilight 6:57 AM CDT 7:33 PM CDT
Nautical Twilight 6:26 AM CDT 8:04 PM CDT
Astronomical Twilight 5:55 AM CDT 8:35 PM CDT
Moon 12:54 PM CDT (10/3) 10:48 PM CDT (10/3)
Length of Visible Light 12h 35m
Length of Day
11h 42m
Waxing Crescent, 30% of the Moon is Illuminated
Oct 3
Waxing Crescent
Oct 5
First Quarter
Oct 13
Full
Oct 21
Last Quarter
Oct 27
New

Hourly Weather History & Observations

Time (CDT) Temp. Dew Point Humidity Pressure Visibility Wind Dir Wind Speed Gust Speed Precip Events Conditions
12:52 AM 55.0 °F 48.9 °F 80% 30.14 in 10.0 mi North 10.4 mph 18.4 mph N/A   Overcast
1:52 AM 54.0 °F 48.0 °F 80% 30.16 in 10.0 mi Variable 5.8 mph - N/A   Overcast
2:52 AM 53.1 °F 48.0 °F 83% 30.18 in 10.0 mi North 3.5 mph - N/A   Overcast
3:52 AM 51.1 °F 46.0 °F 83% 30.20 in 10.0 mi North 3.5 mph - N/A   Mostly Cloudy
4:34 AM 51.1 °F 46.0 °F 83% 30.20 in 10.0 mi North 4.6 mph - N/A   Scattered Clouds
4:52 AM 51.1 °F 46.0 °F 83% 30.20 in 10.0 mi North 3.5 mph - N/A   Clear
5:52 AM 51.1 °F 45.0 °F 80% 30.22 in 10.0 mi NNE 5.8 mph - N/A   Clear
6:52 AM 51.1 °F 44.1 °F 77% 30.25 in 10.0 mi North 3.5 mph - N/A   Clear
7:52 AM 50.0 °F 44.1 °F 80% 30.28 in 10.0 mi North 4.6 mph - N/A   Clear
8:52 AM 51.1 °F 45.0 °F 80% 30.29 in 10.0 mi North 4.6 mph - N/A   Clear
9:52 AM 53.1 °F 45.0 °F 74% 30.32 in 10.0 mi NNE 5.8 mph - N/A   Clear
10:52 AM 54.0 °F 45.0 °F 72% 30.32 in 10.0 mi NNE 5.8 mph - N/A   Scattered Clouds
11:52 AM 57.0 °F 46.9 °F 69% 30.31 in 10.0 mi NNE 5.8 mph - N/A   Partly Cloudy
12:52 PM 59.0 °F 46.9 °F 64% 30.31 in 10.0 mi Variable 5.8 mph - N/A   Clear
1:52 PM 62.1 °F 46.9 °F 58% 30.30 in 10.0 mi Variable 3.5 mph - N/A   Clear
2:52 PM 62.1 °F 46.9 °F 58% 30.29 in 10.0 mi Variable 3.5 mph - N/A   Clear
3:52 PM 63.0 °F 46.9 °F 56% 30.27 in 10.0 mi North 6.9 mph - N/A   Clear
4:52 PM 62.1 °F 46.9 °F 58% 30.27 in 10.0 mi NNE 8.1 mph - N/A   Clear
5:52 PM 61.0 °F 46.9 °F 60% 30.27 in 10.0 mi NNE 8.1 mph - N/A   Partly Cloudy
6:52 PM 57.9 °F 46.9 °F 67% 30.28 in 10.0 mi NE 8.1 mph - N/A   Mostly Cloudy
7:52 PM 57.0 °F 48.0 °F 72% 30.28 in 10.0 mi NE 6.9 mph - N/A   Overcast
8:52 PM 57.0 °F 48.0 °F 72% 30.30 in 10.0 mi NE 6.9 mph - N/A   Overcast
9:52 PM 55.9 °F 48.0 °F 75% 30.30 in 10.0 mi NE 9.2 mph - N/A   Overcast
10:52 PM 55.0 °F 46.9 °F 74% 30.33 in 10.0 mi East 4.6 mph - N/A   Scattered Clouds
11:52 PM 55.0 °F 48.0 °F 77% 30.33 in 10.0 mi ENE 6.9 mph - N/A   Overcast